HS5AL Weather Reports


time (UTC)temp
F
wind
direction
speed
knots
gust
knots
rain 1hr
in
rain 24hr
in
rain mn
in
humidity
%
barometer
mb
20260505031906 95 0 0.0 0.0 0.00 0.00 0.00 46 979.0
20260505030844 95 0 0.0 0.0 0.00 0.00 0.00 46 979.0
20260505025822 95 0 0.0 0.0 0.00 0.00 0.00 46 979.0
20260505024800 95 0 0.0 0.0 0.00 0.00 0.00 46 979.0
20260505023738 95 0 0.0 0.0 0.00 0.00 0.00 46 979.0
20260505022716 95 0 0.0 0.0 0.00 0.00 0.00 46 979.0
20260505021654 95 0 0.0 0.0 0.00 0.00 0.00 46 979.0
20260505020632 95 0 0.0 0.0 0.00 0.00 0.00 46 979.0
20260505015610 95 0 0.0 0.0 0.00 0.00 0.00 46 979.0
20260505014548 95 0 0.0 0.0 0.00 0.00 0.00 47 979.0
20260505013526 95 0 0.0 0.0 0.00 0.00 0.00 47 978.0
20260505012504 95 0 0.0 0.0 0.00 0.00 0.00 47 979.0
20260505011442 95 0 0.0 0.0 0.00 0.00 0.00 47 978.0
20260505010420 95 0 0.0 0.0 0.00 0.00 0.00 47 978.0
20260505005358 95 0 0.0 0.0 0.00 0.00 0.00 47 978.0
20260505004336 95 0 0.0 0.0 0.00 0.00 0.00 47 978.0
20260505003314 95 0 0.0 0.0 0.00 0.00 0.00 47 978.0
20260505002251 95 0 0.0 0.0 0.00 0.00 0.00 47 978.0
20260505001229 95 0 0.0 0.0 0.00 0.00 0.00 47 978.0
20260505000207 95 0 0.0 0.0 0.00 0.00 0.00 47 978.0
20260504235145 95 0 0.0 0.0 0.00 0.00 0.00 46 978.0
20260504234123 95 0 0.0 0.0 0.00 0.00 0.00 46 977.0
20260504233101 95 0 0.0 0.0 0.00 0.00 0.00 46 977.0
20260504232039 95 0 0.0 0.0 0.00 0.00 0.00 46 977.0
20260504231017 95 0 0.0 0.0 0.00 0.00 0.00 46 977.0
20260504225955 95 0 0.0 0.0 0.00 0.00 0.00 46 977.0
20260504224933 95 0 0.0 0.0 0.00 0.00 0.00 46 977.0
20260504223911 95 0 0.0 0.0 0.00 0.00 0.00 45 976.0
20260504222849 95 0 0.0 0.0 0.00 0.00 0.00 45 976.0
20260504221827 95 0 0.0 0.0 0.00 0.00 0.00 45 976.0
20260504220805 95 0 0.0 0.0 0.00 0.00 0.00 45 976.0
20260504215743 95 0 0.0 0.0 0.00 0.00 0.00 45 976.0
20260504214721 95 0 0.0 0.0 0.00 0.00 0.00 45 976.0
20260504213659 95 0 0.0 0.0 0.00 0.00 0.00 45 976.0
20260504212637 95 0 0.0 0.0 0.00 0.00 0.00 45 976.0
20260504211615 95 0 0.0 0.0 0.00 0.00 0.00 45 976.0
20260504210553 95 0 0.0 0.0 0.00 0.00 0.00 45 976.0
20260504205531 95 0 0.0 0.0 0.00 0.00 0.00 45 976.0
20260504204509 95 0 0.0 0.0 0.00 0.00 0.00 45 976.0
20260504203447 95 0 0.0 0.0 0.00 0.00 0.00 45 976.0
20260504202425 95 0 0.0 0.0 0.00 0.00 0.00 45 976.0
20260504201403 95 0 0.0 0.0 0.00 0.00 0.00 45 977.0
20260504200341 96 0 0.0 0.0 0.00 0.00 0.00 45 976.0
20260504195319 96 0 0.0 0.0 0.00 0.00 0.00 45 977.0
20260504194257 96 0 0.0 0.0 0.00 0.00 0.00 45 977.0
20260504193235 96 0 0.0 0.0 0.00 0.00 0.00 45 977.0
20260504192213 96 0 0.0 0.0 0.00 0.00 0.00 44 977.0
20260504191151 96 0 0.0 0.0 0.00 0.00 0.00 44 977.0
20260504190129 96 0 0.0 0.0 0.00 0.00 0.00 44 977.0
20260504185107 96 0 0.0 0.0 0.00 0.00 0.00 44 977.0
20260504184045 96 0 0.0 0.0 0.00 0.00 0.00 44 977.0
20260504183023 96 0 0.0 0.0 0.00 0.00 0.00 44 977.0
20260504182001 96 0 0.0 0.0 0.00 0.00 0.00 44 977.0
20260504180939 96 0 0.0 0.0 0.00 0.00 0.00 44 977.0
20260504175917 96 0 0.0 0.0 0.00 0.00 0.00 44 977.0
20260504174855 96 0 0.0 0.0 0.00 0.00 0.00 44 977.0
20260504173833 96 0 0.0 0.0 0.00 0.00 0.00 44 977.0
20260504172811 96 0 0.0 0.0 0.00 0.00 0.00 44 977.0
20260504171749 96 0 0.0 0.0 0.00 0.00 0.00 43 977.0
20260504170727 96 0 0.0 0.0 0.00 0.00 0.00 43 977.0
20260504150303 97 0 0.0 0.0 0.00 0.00 0.00 39 975.0
20260504141113 98 0 0.0 0.0 0.00 0.00 0.00 39 974.0
20260504110437 99 0 0.0 0.0 0.00 0.00 0.00 36 972.0
20260504100225 100 0 0.0 0.0 0.00 0.00 0.00 34 970.0
20260504081845 99 0 0.0 0.0 0.00 0.00 0.00 35 972.0
20260504080823 99 0 0.0 0.0 0.00 0.00 0.00 35 972.0
20260504050147 97 0 0.0 0.0 0.00 0.00 0.00 40 976.0
20260504045125 97 0 0.0 0.0 0.00 0.00 0.00 40 976.0
20260504044103 96 0 0.0 0.0 0.00 0.00 0.00 40 976.0
20260504043041 96 0 0.0 0.0 0.00 0.00 0.00 41 976.0
20260504042019 96 0 0.0 0.0 0.00 0.00 0.00 40 976.0
20260504040957 96 0 0.0 0.0 0.00 0.00 0.00 41 976.0
20260504035935 96 0 0.0 0.0 0.00 0.00 0.00 41 976.0
20260504034912 96 0 0.0 0.0 0.00 0.00 0.00 42 976.0
20260504033850 96 0 0.0 0.0 0.00 0.00 0.00 42 976.0
20260504032828 95 0 0.0 0.0 0.00 0.00 0.00 42 977.0